Theta_e
341 340 342 347 345 347 345 342 340 337 337 338 347 348 349 350 347 348 347 357 358 358 360 361 360 359 359 359 357 355 355 354 353 353 354 353 353 355 354 354 353 352 351
345 343 342 341 342 345 343 343 343 342 341 342 345 345 346 349 347 348 349 350 360 360 360 361 361 361 360 360 359 359 356 355 356 356 357 357 356 356 356 354 353 353 353
345 342 339 338 340 344 341 338 337 341 343 344 345 346 348 350 349 349 350 350 354 361 360 359 359 359 361 360 360 359 358 358 358 358 358 357 356 356 356 356 355 355 354
346 342 340 341 344 341 339 335 334 335 338 342 343 343 346 347 347 346 349 350 351 353 358 359 358 359 361 362 361 362 360 358 357 357 357 357 355 355 353 355 354 354 355
348 343 341 340 346 344 340 338 340 337 335 339 342 343 344 344 346 348 348 348 349 350 350 356 358 358 358 359 362 363 362 360 356 355 354 354 354 352 351 353 352 351 352
345 343 342 343 346 345 343 341 340 339 340 341 346 347 343 344 344 343 345 348 345 350 349 351 351 353 357 357 357 359 359 359 356 354 353 353 353 352 351 351 351 352 352
345 342 342 344 344 343 344 345 342 340 339 341 338 336 338 341 342 343 345 344 344 347 346 346 346 348 347 352 354 355 354 356 358 356 353 351 351 352 352 350 351 351 350
346 346 343 344 345 344 343 343 342 339 340 340 334 331 327 330 335 340 341 343 341 345 346 346 346 346 342 345 347 352 349 350 352 352 351 352 352 350 351 350 350 351 350
346 345 344 343 344 343 342 341 341 339 335 337 339 332 325 323 327 334 338 339 341 342 344 346 344 343 341 344 348 349 348 348 348 348 352 350 349 350 350 350 350 346 348
345 345 345 344 343 343 343 342 344 339 338 335 337 340 336 333 325 322 335 337 340 339 339 338 342 340 339 338 343 346 346 348 349 350 348 347 347 348 349 349 349 349 348
345 345 343 344 343 343 342 342 341 339 340 337 336 335 334 333 332 327 323 331 335 338 340 343 342 341 342 343 343 346 346 345 346 347 347 348 348 347 347 347 347 345 345
340 342 343 341 340 341 341 341 340 340 339 338 337 337 334 330 328 328 327 329 329 332 334 337 340 339 340 342 344 344 343 341 341 342 343 344 344 344 344 344 343 342 343
336 337 339 340 340 341 341 340 339 338 337 335 335 335 337 335 335 332 331 331 329 332 331 332 335 336 335 337 339 340 340 338 336 336 337 337 338 338 337 337 338 338 339
335 336 339 339 340 341 339 338 336 337 336 336 335 335 335 336 337 336 331 329 328 329 328 327 331 334 334 335 337 337 334 334 332 331 332 332 332 332 332 332 332 333 334
337 337 338 337 340 338 337 335 334 333 333 333 334 335 335 336 337 337 335 334 330 324 323 326 326 330 329 329 331 328 330 332 331 329 328 328 328 328 328 328 329 329 333
335 335 335 334 336 336 333 331 331 332 332 332 332 332 334 334 335 336 335 333 334 329 322 326 325 326 328 328 329 324 325 327 327 326 325 325 325 325 325 326 326 328 331
334 334 336 334 333 333 332 329 328 329 329 329 329 330 330 332 333 334 334 332 331 325 321 320 322 323 323 323 323 321 318 316 319 323 322 322 321 321 322 323 323 325 327
333 333 333 331 333 332 329 328 328 328 325 325 325 326 327 334 330 330 328 325 323 322 323 318 319 319 319 320 320 319 317 317 315 321 320 319 319 319 319 320 319 319 319
332 332 331 330 330 331 329 328 326 324 322 322 322 322 324 328 325 324 324 321 323 324 323 319 316 318 318 318 317 316 315 316 317 320 319 318 318 318 319 318 317 314 313
331 330 329 329 327 328 330 328 323 321 320 320 321 321 322 325 324 321 320 319 320 321 320 318 317 317 317 318 317 315 313 312 311 318 316 316 317 318 318 318 317 316 312
331 330 329 323 321 323 328 327 323 320 319 318 319 321 322 328 330 326 320 316 316 318 318 317 316 316 315 314 315 315 310 308 310 309 307 308 309 309 311 316 317 316 314
331 329 324 320 318 323 321 325 326 323 321 318 318 318 319 320 323 326 325 323 319 316 313 314 310 310 310 311 313 312 309 308 308 311 309 308 310 308 308 307 315 315 313
331 328 320 318 317 319 319 322 325 322 320 320 319 315 315 316 315 315 320 322 323 323 321 315 312 312 312 315 314 311 312 315 311 311 312 309 310 310 310 308 317 315 312
330 325 321 318 316 317 317 318 323 320 317 317 316 313 309 309 309 308 305 306 308 312 316 320 317 314 311 311 317 316 315 313 313 313 313 309 311 310 307 306 316 315 313
333 330 324 319 316 314 313 316 321 320 317 315 315 313 310 308 312 309 301 298 297 299 310 311 309 310 311 312 311 307 304 309 307 315 311 311 309 309 306 304 307 315 312
332 333 330 323 316 314 311 311 318 321 315 313 310 310 313 308 310 308 301 301 301 300 302 303 304 306 309 310 312 305 304 305 304 304 307 309 310 307 304 309 304 306 306
Wind_Speed
4 3 4 4 3 3 4 3 3 3 3 3 2 3 6 6 5 4 3 12 17 19 16 17 19 18 17 16 15 15 14 14 14 13 13 12 11 11 11 11 10 10 10
4 4 4 4 4 3 3 3 3 4 3 2 3 4 5 6 5 6 5 7 19 19 17 18 18 18 19 18 18 17 16 16 14 13 13 12 11 10 12 12 12 12 12
5 5 4 3 3 3 3 1 2 2 3 3 4 4 4 7 5 5 6 5 7 17 19 18 16 17 18 17 16 16 16 16 15 14 14 13 10 10 11 13 13 12 11
6 4 4 4 4 4 4 3 3 3 4 3 2 4 4 3 5 5 4 5 5 6 14 17 17 17 17 17 16 16 16 16 16 15 14 14 13 13 13 13 14 13 12
5 4 4 4 4 3 3 3 3 4 2 3 2 4 4 4 5 4 6 6 7 7 5 10 16 16 17 16 16 16 15 15 15 14 13 12 13 13 12 13 12 11 12
5 4 4 4 4 3 3 3 5 3 4 3 2 3 3 4 4 4 5 4 5 6 6 8 6 8 14 12 11 13 14 12 13 13 12 11 12 11 12 12 11 10 11
5 5 4 5 5 4 5 5 3 5 2 1 0 3 3 5 5 4 4 4 1 2 4 4 4 3 2 4 4 7 6 7 9 10 10 11 12 12 12 13 11 12 11
4 4 4 4 4 3 3 3 3 2 1 3 3 2 3 4 3 5 4 3 3 2 4 4 0 4 4 2 2 7 4 3 4 4 6 9 10 11 13 15 11 10 11
4 2 3 2 4 3 2 0 2 4 2 1 3 4 1 3 2 4 7 5 4 3 5 5 4 5 3 5 4 3 3 2 3 4 4 6 6 9 11 7 2 4 5
3 2 4 4 3 2 2 0 0 1 2 3 1 3 1 3 2 1 3 4 5 5 3 3 4 4 2 1 2 3 5 8 8 8 7 5 6 7 8 7 7 7 6
1 4 4 4 4 2 2 2 1 2 2 2 3 2 2 2 1 2 2 2 4 4 4 4 6 5 5 4 3 6 11 11 10 10 9 9 9 10 10 11 11 10 9
3 3 4 4 3 3 3 3 3 3 2 2 2 4 3 3 3 3 3 3 4 3 5 5 6 5 4 4 9 13 13 13 12 11 12 13 13 13 13 13 13 13 12
1 2 1 4 4 4 4 4 5 4 2 1 1 3 3 4 3 3 5 3 3 1 3 5 5 5 5 5 6 12 14 14 14 13 13 14 14 13 13 12 12 12 12
2 2 0 2 6 6 5 5 3 3 3 2 3 2 2 3 3 4 5 7 4 2 3 2 4 4 4 4 10 13 8 14 14 13 13 12 12 12 12 13 13 13 12
3 3 2 4 6 6 6 5 4 4 4 3 4 4 2 1 2 4 4 8 5 4 2 1 2 5 5 4 7 6 6 13 13 12 11 12 12 12 12 13 13 14 12
3 4 4 4 5 6 5 5 4 3 5 3 3 5 4 3 3 3 5 4 3 6 4 2 2 3 4 5 8 5 7 11 13 12 11 11 11 11 12 12 13 14 14
5 4 4 4 5 5 5 5 5 6 6 5 4 5 5 4 3 3 4 3 4 4 6 3 2 3 3 5 5 5 5 5 5 10 10 10 11 11 12 12 13 14 15
3 6 7 6 6 5 4 4 6 5 5 5 5 6 5 3 5 5 4 5 5 3 8 11 2 2 3 3 4 5 3 3 4 8 10 11 11 11 11 11 11 12 13
6 6 7 6 6 5 5 5 5 6 5 5 6 6 5 6 5 4 5 6 5 7 7 7 4 2 2 1 3 3 3 3 2 9 10 10 9 9 10 10 10 10 10
6 5 6 6 6 5 5 5 5 6 6 6 6 5 5 5 5 5 6 6 6 7 8 7 5 2 2 2 2 2 2 1 1 2 5 4 5 7 7 9 9 9 9
6 6 7 6 5 6 4 6 5 6 6 6 6 6 6 7 8 7 4 5 6 6 6 5 3 2 2 2 3 2 2 2 0 2 1 0 0 1 2 4 6 7 7
6 6 6 7 7 4 6 8 7 5 6 6 6 5 6 9 10 10 11 9 7 8 5 4 2 3 2 2 2 3 3 2 1 2 2 2 3 2 2 2 3 5 6
5 6 6 7 7 6 7 8 11 6 6 5 5 4 5 4 7 7 11 10 7 7 5 5 5 4 4 5 4 3 3 2 2 2 3 2 3 3 3 3 7 6 6
3 7 6 5 6 4 7 8 10 7 6 6 6 5 6 5 4 6 7 7 6 5 4 4 5 4 4 4 4 4 4 3 3 2 2 1 1 2 1 2 6 7 7
3 4 5 7 7 5 6 9 8 6 6 6 5 6 6 6 4 6 8 7 5 4 6 8 6 6 5 4 5 5 2 3 1 1 1 2 2 2 1 2 4 9 8
3 4 4 4 6 7 7 9 7 4 6 5 4 4 6 6 6 8 7 6 6 3 3 4 4 5 6 5 6 3 5 4 3 1 2 2 2 2 2 1 2 3 3
Wind_Direction
170 169 184 165 164 161 165 173 167 159 223 206 238 275 237 222 208 201 207 205 217 217 211 204 207 208 211 207 207 210 214 218 221 222 225 223 223 220 228 218 225 227 230
166 165 166 178 181 179 162 157 181 181 225 239 261 243 248 243 204 218 212 217 220 209 213 213 212 210 214 217 210 210 215 221 224 225 229 232 226 229 228 230 236 235 232
170 160 163 184 202 182 157 225 277 262 211 202 235 244 251 249 245 206 224 215 216 215 209 217 217 213 220 224 223 219 217 223 226 225 228 231 230 228 236 238 244 243 238
157 166 171 203 192 181 193 205 219 259 216 216 233 257 251 243 261 230 200 196 212 216 215 215 217 219 218 221 227 224 221 225 231 229 226 227 229 233 239 241 245 245 241
158 187 197 232 222 204 203 219 244 227 245 238 260 250 238 238 231 241 214 202 207 204 213 217 221 222 224 224 223 231 232 230 236 240 243 242 240 244 251 247 260 259 245
185 203 218 228 223 215 203 191 230 210 239 218 277 275 257 255 253 240 244 210 222 211 210 217 221 227 220 225 225 241 247 241 243 246 243 239 249 246 245 242 243 242 254
202 208 224 232 224 214 219 219 194 213 262 195 94 329 298 247 250 241 228 240 117 229 271 251 213 189 252 222 232 203 234 244 255 251 266 252 256 254 252 254 244 239 246
247 230 228 219 178 190 215 205 183 165 204 173 143 105 321 328 344 3 6 50 87 73 83 60 216 95 108 108 203 213 196 329 295 337 333 336 318 295 267 259 247 249 249
254 205 231 217 177 152 161 132 148 178 194 338 199 151 78 241 10 3 42 50 62 92 107 78 58 79 91 103 46 17 131 85 148 43 39 68 50 42 22 340 296 342 24
135 138 114 115 94 101 117 160 141 167 142 225 350 229 198 146 155 97 28 36 33 58 58 108 83 65 94 107 197 172 131 94 85 97 83 73 60 57 60 75 73 63 49
94 98 91 84 101 100 114 114 114 159 176 162 195 189 210 201 179 132 120 96 43 14 29 63 81 66 52 92 77 105 95 88 81 81 92 87 80 72 70 70 65 57 44
25 5 105 115 99 79 92 98 111 120 146 188 216 196 183 162 173 156 126 111 100 24 31 27 71 59 46 77 96 95 92 86 80 73 72 73 68 65 63 60 53 49 42
64 334 303 101 104 101 92 91 93 82 62 61 318 206 193 191 156 136 123 128 124 98 49 33 47 57 49 52 78 88 93 90 80 72 71 73 71 66 66 63 54 47 40
166 187 269 104 98 110 95 77 79 79 77 59 60 83 151 200 178 155 145 143 129 102 54 82 30 60 59 57 82 77 84 85 79 70 65 63 66 68 64 59 54 43 37
163 150 107 72 81 86 92 97 87 78 62 36 41 48 81 70 178 150 138 159 143 138 123 137 95 45 73 78 81 59 67 82 84 80 74 74 66 64 61 57 50 46 37
143 105 73 69 80 96 99 94 87 85 80 43 37 53 42 35 74 114 145 135 127 132 132 123 84 106 104 104 106 82 83 85 89 90 91 87 85 79 72 64 62 58 48
152 151 136 74 108 105 97 101 96 73 69 59 39 53 46 43 62 70 113 109 105 104 125 78 74 64 72 98 89 87 81 77 78 93 94 92 83 78 75 72 71 62 62
120 115 112 105 116 116 120 91 72 69 79 61 40 47 26 37 54 59 66 75 99 109 139 136 124 117 87 76 93 94 95 89 103 100 95 93 92 91 89 87 82 73 69
113 117 118 117 122 136 115 95 99 89 72 66 59 53 33 62 54 61 80 90 100 104 121 132 115 100 112 122 85 78 91 77 83 107 103 102 101 99 100 98 90 81 74
135 148 129 126 119 113 120 108 98 89 79 71 67 65 59 75 96 86 80 95 106 108 117 118 105 105 101 109 113 131 143 80 71 64 89 108 105 94 93 97 98 91 79
162 159 128 118 118 109 113 136 124 112 99 79 53 54 55 80 102 104 113 98 93 100 107 113 104 112 134 154 175 159 118 162 236 143 139 243 64 80 66 73 107 106 94
183 140 148 143 127 110 126 153 142 128 108 100 89 60 49 63 64 87 108 115 129 136 133 127 132 136 168 170 143 157 136 128 159 199 128 256 181 221 175 186 193 140 125
160 161 158 146 141 133 112 140 124 124 131 156 113 101 71 46 73 85 81 89 104 115 130 146 141 161 150 185 154 149 179 155 196 190 128 225 178 239 195 196 180 174 167
228 160 160 160 142 136 116 118 125 123 115 117 129 123 110 97 94 97 87 76 69 77 111 133 139 150 150 171 178 170 178 160 81 71 133 177 194 244 128 161 193 197 199
267 263 165 160 150 150 120 113 119 127 120 119 127 127 124 113 128 119 107 104 81 47 48 75 95 121 127 160 152 117 77 104 57 135 263 156 217 196 178 206 216 199 214
140 249 195 202 162 160 164 124 126 136 130 128 102 100 122 141 158 147 129 136 126 182 120 77 45 44 48 47 58 94 152 132 140 97 208 169 140 133 306 192 192 208 206